M I D A S
Marine Information and Data Acquisition System
Tripno 1806 of the Zeeleeuw from 2009-11-13 07:18:30 to 2009-11-13 14:55:55
Back to CruiseResearch ActivitiesStationsMapUnderway DataData graphs

EquipmentUnitsComments
TimeDGPSUTC
LatitudeDGPSDM.mWGS84
LongitudeDGPSDM.mWGS84
SpeedMeteo Stationm/sRelative wind speed
DirectionMeteo StationdegRelative wind direction
TemperatureMeteo Stationdeg CelciusAir temperature
PressureMeteo StationPaAtmospheric pressure
HumidityMeteo Station%Relative humidity
Missing or incorrect values are displayed as -999
Metereological data collected by the RV Zeeleeuw from 2009-11-13 07:26:55 to 2009-11-16 12:52:53
                                                                                    Next 1000 lines
Time Latitude Longitude Speed Direction Temperature Pressure Humidity
2009-11-13 07:27:05 51°13.661 2°55.957 0.6 16 12.9 100260 48
2009-11-13 07:27:10 51°13.662 2°55.955 0.3 9 12.9 100260 49
2009-11-13 07:27:15 51°13.663 2°55.952 2.4 27 12.9 100260 49
2009-11-13 07:27:20 51°13.664 2°55.948 2.2 23 12.9 100260 50
2009-11-13 07:27:25 51°13.665 2°55.944 0.3 12 12.9 100260 50
2009-11-13 07:27:31 51°13.666 2°55.939 0.2 39 12.9 100260 48
2009-11-13 07:27:36 51°13.668 2°55.934 0.1 23 12.9 100260 48
2009-11-13 07:27:42 51°13.669 2°55.928 0.1 21 12.9 100270 48
2009-11-13 07:27:48 51°13.671 2°55.921 2 18 12.9 100270 48
2009-11-13 07:27:53 51°13.672 2°55.916 2.4 9 12.9 100260 48
2009-11-13 07:27:59 51°13.674 2°55.908 3.5 22 12.9 100260 48
2009-11-13 07:28:04 51°13.675 2°55.902 3.5 25 12.9 100270 50
2009-11-13 07:28:08 51°13.676 2°55.897 5.3 4 12.9 100270 50
2009-11-13 07:28:14 51°13.678 2°55.89 5.9 7 12.9 100260 47
2009-11-13 07:28:19 51°13.679 2°55.883 4.2 18 12.9 100260 47
2009-11-13 07:28:23 51°13.681 2°55.877 4.4 21 12.9 100260 50
2009-11-13 07:28:28 51°13.682 2°55.87 2.3 13 12.9 100260 50
2009-11-13 07:28:34 51°13.684 2°55.861 2.9 13 12.9 100260 47
2009-11-13 07:28:39 51°13.685 2°55.854 2.4 26 12.9 100260 47
2009-11-13 07:28:43 51°13.686 2°55.848 3.8 11 12.9 100260 50
2009-11-13 07:28:49 51°13.688 2°55.839 1.9 27 12.9 100260 50
2009-11-13 07:28:54 51°13.689 2°55.832 2.3 31 12.9 100260 46
2009-11-13 07:28:59 51°13.69 2°55.825 3.9 25 12.9 100260 46
2009-11-13 07:29:03 51°13.691 2°55.82 5.4 14 12.9 100260 46
2009-11-13 07:29:08 51°13.692 2°55.813 3.7 35 12.9 100260 46
2009-11-13 07:29:14 51°13.692 2°55.805 3.9 38 12.9 100260 47
2009-11-13 07:29:19 51°13.693 2°55.798 4 33 12.9 100260 47
2009-11-13 07:29:24 51°13.693 2°55.792 5.3 29 12.9 100260 47
2009-11-13 07:29:28 51°13.693 2°55.787 4.1 41 12.9 100260 47
2009-11-13 07:29:34 51°13.693 2°55.78 3.7 37 12.9 100260 50
2009-11-13 07:29:39 51°13.692 2°55.774 3.4 28 12.9 100260 50
2009-11-13 07:29:43 51°13.692 2°55.769 2.3 30 12.9 100260 49
2009-11-13 07:29:48 51°13.691 2°55.764 4.1 38 12.9 100260 49
2009-11-13 07:29:53 51°13.691 2°55.759 3.1 32 12.9 100260 50
2009-11-13 07:29:58 51°13.69 2°55.754 4.6 31 12.9 100260 50
2009-11-13 07:30:03 51°13.689 2°55.75 5.7 23 12.9 100260 46
2009-11-13 07:30:08 51°13.688 2°55.745 3.1 35 12.9 100260 46
2009-11-13 07:30:12 51°13.687 2°55.743 2.7 35 12.9 100260 46
2009-11-13 07:30:17 51°13.687 2°55.74 5.3 38 12.9 100260 46
2009-11-13 07:30:23 51°13.686 2°55.737 6.6 35 12.9 100260 48
2009-11-13 07:30:27 51°13.686 2°55.736 3.5 35 12.9 100260 48
2009-11-13 07:30:32 51°13.686 2°55.735 4.7 39 12.9 100260 49
2009-11-13 07:30:37 51°13.687 2°55.735 4.8 42 12.9 100260 49
2009-11-13 07:30:41 51°13.687 2°55.735 4.8 43 12.9 100260 47
2009-11-13 07:30:47 51°13.689 2°55.736 5.4 38 12.9 100260 47
2009-11-13 07:30:51 51°13.69 2°55.736 4.1 26 12.9 100260 49
2009-11-13 07:30:56 51°13.692 2°55.737 4.3 39 12.9 100260 49
2009-11-13 07:31:01 51°13.694 2°55.738 2.2 21 12.9 100260 47
2009-11-13 07:31:06 51°13.696 2°55.738 1.8 40 12.9 100260 47
2009-11-13 07:31:11 51°13.698 2°55.739 0.5 21 12.9 100260 50
2009-11-13 07:31:16 51°13.701 2°55.739 3 35 12.9 100260 50
2009-11-13 07:31:20 51°13.704 2°55.738 2.3 24 12.9 100260 51
2009-11-13 07:31:25 51°13.708 2°55.737 0.1 36 12.9 100260 51
2009-11-13 07:31:30 51°13.713 2°55.736 0.1 19 12.9 100270 48
2009-11-13 07:31:35 51°13.718 2°55.733 0.1 36 12.9 100270 48
2009-11-13 07:31:40 51°13.723 2°55.729 0.1 23 12.9 100260 49
2009-11-13 07:31:44 51°13.728 2°55.726 -999 35 12.9 100260 49
2009-11-13 07:31:50 51°13.736 2°55.72 -999 23 12.9 100260 48
2009-11-13 07:31:55 51°13.743 2°55.714 -999 35 12.9 100260 48
2009-11-13 07:32:00 51°13.75 2°55.708 -999 23 12.9 100260 48
2009-11-13 07:32:05 51°13.757 2°55.702 0.1 35 12.9 100260 48
2009-11-13 07:32:10 51°13.765 2°55.695 0.1 24 12.9 100260 48
2009-11-13 07:32:15 51°13.773 2°55.688 3.8 39 12.9 100260 48
2009-11-13 07:32:20 51°13.781 2°55.681 5.4 22 12.9 100260 48
2009-11-13 07:32:25 51°13.79 2°55.673 1.3 254 12.9 100260 48
2009-11-13 07:32:30 51°13.798 2°55.666 1.7 259 12.9 100270 48
2009-11-13 07:32:35 51°13.807 2°55.659 0.6 248 12.9 100270 48
2009-11-13 07:32:40 51°13.816 2°55.652 0.4 256 12.9 100270 50
2009-11-13 07:32:45 51°13.824 2°55.645 0.1 38 12.9 100270 50
2009-11-13 07:32:50 51°13.833 2°55.638 0.1 25 12.9 100270 48
2009-11-13 07:32:55 51°13.842 2°55.631 -999 258 12.9 100270 48
2009-11-13 07:33:00 51°13.85 2°55.625 0.1 254 12.8 100260 48
2009-11-13 07:33:05 51°13.859 2°55.618 2.8 38 12.8 100260 48
2009-11-13 07:33:10 51°13.867 2°55.611 2.3 20 12.9 100260 48
2009-11-13 07:33:15 51°13.875 2°55.605 5 34 12.9 100260 48
2009-11-13 07:33:20 51°13.884 2°55.598 2.7 29 12.8 100260 48
2009-11-13 07:33:25 51°13.892 2°55.592 0.2 39 12.8 100260 48
2009-11-13 07:33:30 51°13.9 2°55.586 1.9 21 12.8 100270 51
2009-11-13 07:33:35 51°13.908 2°55.579 1.9 36 12.8 100270 51
2009-11-13 07:33:40 51°13.917 2°55.573 1.3 19 12.9 100260 51
2009-11-13 07:33:45 51°13.925 2°55.567 2.5 261 12.9 100260 51
2009-11-13 07:33:50 51°13.933 2°55.562 0.9 30 12.9 100260 51
2009-11-13 07:33:55 51°13.941 2°55.556 2.1 268 12.9 100260 51
2009-11-13 07:34:00 51°13.95 2°55.55 1 29 12.9 100260 50
2009-11-13 07:34:05 51°13.958 2°55.544 0.3 35 12.9 100260 50
2009-11-13 07:34:10 51°13.966 2°55.538 0.3 29 12.9 100260 45
2009-11-13 07:34:15 51°13.974 2°55.532 0.1 37 12.9 100260 45
2009-11-13 07:34:20 51°13.982 2°55.526 0.1 25 12.9 100260 45
2009-11-13 07:34:25 51°13.99 2°55.52 0.1 259 12.9 100260 45
2009-11-13 07:34:30 51°13.998 2°55.514 0.1 267 12.9 100260 48
2009-11-13 07:34:35 51°14.006 2°55.508 -999 35 12.9 100260 48
2009-11-13 07:34:40 51°14.014 2°55.502 -999 23 12.9 100260 49
2009-11-13 07:34:45 51°14.022 2°55.496 -999 258 12.9 100260 49
2009-11-13 07:34:50 51°14.03 2°55.49 -999 254 12.9 100260 49
2009-11-13 07:34:55 51°14.038 2°55.485 1.8 260 12.9 100260 49
2009-11-13 07:35:00 51°14.046 2°55.478 1.2 269 12.9 100260 49
2009-11-13 07:35:04 51°14.053 2°55.473 0.1 260 12.9 100260 49
2009-11-13 07:35:10 51°14.064 2°55.466 0.1 264 12.9 100260 49
2009-11-13 07:35:15 51°14.073 2°55.459 -999 264 12.9 100260 49
2009-11-13 07:35:20 51°14.083 2°55.452 -999 42 12.9 100260 48
2009-11-13 07:35:25 51°14.093 2°55.445 -999 268 12.9 100260 48
2009-11-13 07:35:30 51°14.103 2°55.438 -999 30 12.9 100260 49
2009-11-13 07:35:35 51°14.113 2°55.43 1 252 12.9 100260 49
2009-11-13 07:35:40 51°14.123 2°55.422 0.3 255 12.9 100260 49
2009-11-13 07:35:45 51°14.134 2°55.415 0.2 253 12.9 100260 49
2009-11-13 07:35:50 51°14.144 2°55.406 0.2 270 12.9 100260 49
2009-11-13 07:35:55 51°14.155 2°55.398 0.1 269 12.9 100260 49
2009-11-13 07:36:00 51°14.166 2°55.389 -999 270 12.8 100260 47
2009-11-13 07:36:05 51°14.177 2°55.38 -999 250 12.8 100260 47
2009-11-13 07:36:10 51°14.187 2°55.371 -999 248 12.9 100260 49
2009-11-13 07:36:15 51°14.198 2°55.361 3.6 256 12.9 100260 49
2009-11-13 07:36:20 51°14.208 2°55.351 2.9 20 12.8 100260 49
2009-11-13 07:36:25 51°14.218 2°55.34 3.4 267 12.8 100260 49
2009-11-13 07:36:30 51°14.228 2°55.328 3.7 25 12.8 100250 48
2009-11-13 07:36:35 51°14.238 2°55.316 2.4 253 12.8 100250 48
2009-11-13 07:36:40 51°14.247 2°55.302 2 257 12.8 100260 48
2009-11-13 07:36:45 51°14.256 2°55.288 4.3 249 12.8 100260 48
2009-11-13 07:36:50 51°14.265 2°55.274 4 263 12.8 100250 49
2009-11-13 07:36:55 51°14.274 2°55.259 4.6 266 12.8 100250 49
2009-11-13 07:37:00 51°14.282 2°55.243 4.1 264 12.8 100250 48
2009-11-13 07:37:05 51°14.29 2°55.226 2.9 241 12.8 100250 48
2009-11-13 07:37:10 51°14.298 2°55.209 4.7 22 12.8 100260 53
2009-11-13 07:37:15 51°14.306 2°55.193 1 237 12.8 100260 53
2009-11-13 07:37:20 51°14.314 2°55.176 0.3 25 12.8 100250 47
2009-11-13 07:37:25 51°14.322 2°55.159 2.5 318 12.8 100250 47
2009-11-13 07:37:30 51°14.33 2°55.141 2.7 317 12.8 100250 47
2009-11-13 07:37:35 51°14.338 2°55.123 3.4 38 12.8 100250 47
2009-11-13 07:37:40 51°14.345 2°55.105 6.2 20 12.8 100240 48
2009-11-13 07:37:45 51°14.353 2°55.086 3.2 242 12.8 100240 48
2009-11-13 07:37:50 51°14.361 2°55.068 4.7 25 12.8 100250 46
2009-11-13 07:37:55 51°14.37 2°55.05 1.5 316 12.8 100250 46
2009-11-13 07:38:00 51°14.38 2°55.035 3.6 26 12.8 100240 47
2009-11-13 07:38:05 51°14.391 2°55.02 7.4 242 12.8 100240 47
2009-11-13 07:38:10 51°14.403 2°55.007 6.5 22 12.8 100240 48
2009-11-13 07:38:15 51°14.414 2°54.993 4.6 247 12.8 100240 48
2009-11-13 07:38:20 51°14.425 2°54.979 2.8 258 12.8 100240 51
2009-11-13 07:38:25 51°14.437 2°54.965 3.2 248 12.8 100240 51
2009-11-13 07:38:29 51°14.446 2°54.953 3.4 255 12.8 100250 46
2009-11-13 07:38:34 51°14.457 2°54.938 4.1 252 12.8 100250 46
2009-11-13 07:38:39 51°14.469 2°54.924 5.5 253 12.8 100240 49
2009-11-13 07:38:44 51°14.481 2°54.909 6 247 12.8 100240 49
2009-11-13 07:38:49 51°14.493 2°54.894 6.7 249 12.8 100240 46
2009-11-13 07:38:54 51°14.505 2°54.88 4.5 251 12.8 100240 46
2009-11-13 07:38:59 51°14.517 2°54.866 6.1 250 12.8 100250 48
2009-11-13 07:39:04 51°14.53 2°54.853 3 254 12.8 100250 48
2009-11-13 07:39:09 51°14.542 2°54.839 2 260 12.8 100240 47
2009-11-13 07:39:14 51°14.555 2°54.826 3.4 257 12.8 100240 47
2009-11-13 07:39:20 51°14.571 2°54.81 5.9 258 12.8 100240 47
2009-11-13 07:39:25 51°14.583 2°54.798 3.8 261 12.8 100240 47
2009-11-13 07:39:30 51°14.596 2°54.784 4.9 260 12.8 100240 47
2009-11-13 07:39:34 51°14.607 2°54.774 4.1 261 12.8 100240 47
2009-11-13 07:39:40 51°14.622 2°54.758 4.9 260 12.8 100240 50
2009-11-13 07:39:44 51°14.632 2°54.748 1.1 263 12.8 100240 50
2009-11-13 07:39:50 51°14.648 2°54.732 0.7 262 12.8 100240 51
2009-11-13 07:39:55 51°14.661 2°54.72 2.6 270 12.8 100240 51
2009-11-13 07:40:00 51°14.675 2°54.709 2.8 267 12.8 100250 51
2009-11-13 07:40:05 51°14.689 2°54.697 0.3 262 12.8 100250 51
2009-11-13 07:40:10 51°14.703 2°54.687 0.2 262 12.8 100240 49
2009-11-13 07:40:14 51°14.714 2°54.678 2.6 261 12.8 100240 49
2009-11-13 07:40:20 51°14.73 2°54.666 1.9 259 12.8 100250 50
2009-11-13 07:40:24 51°14.742 2°54.657 2.2 266 12.8 100250 50
2009-11-13 07:40:30 51°14.758 2°54.645 1.6 259 12.8 100250 48
2009-11-13 07:40:34 51°14.769 2°54.636 1.9 263 12.8 100250 48
2009-11-13 07:40:40 51°14.787 2°54.624 1.7 265 12.8 100250 45
2009-11-13 07:40:44 51°14.798 2°54.616 1.8 262 12.8 100250 45
2009-11-13 07:40:50 51°14.815 2°54.603 2.8 260 12.8 100240 46
2009-11-13 07:40:54 51°14.826 2°54.595 3 259 12.8 100240 46
2009-11-13 07:41:00 51°14.842 2°54.582 2.8 261 12.8 100240 50
2009-11-13 07:41:04 51°14.854 2°54.574 2.8 256 12.8 100240 50
2009-11-13 07:41:10 51°14.87 2°54.561 3.4 258 12.8 100240 48
2009-11-13 07:41:14 51°14.881 2°54.552 2.9 259 12.8 100240 48
2009-11-13 07:41:20 51°14.898 2°54.539 3.7 258 12.8 100240 50
2009-11-13 07:41:24 51°14.91 2°54.53 3.3 257 12.8 100240 50
2009-11-13 07:41:30 51°14.926 2°54.516 4 259 12.8 100240 51
2009-11-13 07:41:34 51°14.937 2°54.507 2.8 258 12.8 100240 51
2009-11-13 07:41:40 51°14.954 2°54.494 3.3 256 12.8 100240 51
2009-11-13 07:41:44 51°14.965 2°54.485 3.6 260 12.8 100240 51
2009-11-13 07:41:50 51°14.982 2°54.471 3 263 12.8 100240 51
2009-11-13 07:41:54 51°14.993 2°54.462 2.7 261 12.8 100240 51
2009-11-13 07:42:00 51°15.01 2°54.447 3.6 262 12.7 100240 48
2009-11-13 07:42:04 51°15.021 2°54.439 2.6 260 12.7 100240 48
2009-11-13 07:42:10 51°15.038 2°54.425 2.1 262 12.7 100240 49
2009-11-13 07:42:14 51°15.049 2°54.415 1.4 264 12.7 100240 49
2009-11-13 07:42:20 51°15.066 2°54.401 2.4 269 12.7 100240 46
2009-11-13 07:42:25 51°15.079 2°54.389 1.2 263 12.7 100240 46
2009-11-13 07:42:30 51°15.093 2°54.378 1.8 261 12.7 100240 50
2009-11-13 07:42:34 51°15.104 2°54.368 1.3 263 12.7 100240 50
2009-11-13 07:42:40 51°15.121 2°54.354 3.2 260 12.7 100240 49
2009-11-13 07:42:45 51°15.135 2°54.342 4.5 253 12.7 100240 49
2009-11-13 07:42:50 51°15.149 2°54.331 5.1 253 12.7 100240 48
2009-11-13 07:42:54 51°15.16 2°54.321 5 253 12.7 100240 48
2009-11-13 07:43:00 51°15.176 2°54.307 5.2 256 12.7 100240 47
2009-11-13 07:43:05 51°15.19 2°54.295 2.8 262 12.7 100240 47
2009-11-13 07:43:10 51°15.204 2°54.284 3.8 269 12.7 100230 51
2009-11-13 07:43:15 51°15.217 2°54.272 4 258 12.7 100230 51
2009-11-13 07:43:20 51°15.231 2°54.26 3.7 257 12.7 100230 50
2009-11-13 07:43:25 51°15.245 2°54.248 2.7 266 12.7 100230 50
2009-11-13 07:43:30 51°15.259 2°54.237 2.6 269 12.7 100230 51
2009-11-13 07:43:34 51°15.27 2°54.228 3.2 264 12.7 100230 51
2009-11-13 07:43:40 51°15.286 2°54.214 4.2 261 12.7 100240 46
2009-11-13 07:43:45 51°15.3 2°54.202 3.1 266 12.7 100240 46
2009-11-13 07:43:50 51°15.314 2°54.19 3.2 267 12.7 100230 51
2009-11-13 07:43:54 51°15.325 2°54.181 6.4 41 12.7 100230 51
2009-11-13 07:44:00 51°15.341 2°54.167 5.5 24 12.7 100240 49
2009-11-13 07:44:05 51°15.355 2°54.155 4.7 31 12.7 100240 49
2009-11-13 07:44:10 51°15.369 2°54.144 4.5 262 12.7 100240 46
2009-11-13 07:44:14 51°15.38 2°54.135 2.5 263 12.7 100240 46
2009-11-13 07:44:20 51°15.397 2°54.12 2.5 261 12.7 100240 47
2009-11-13 07:44:25 51°15.411 2°54.109 3 264 12.7 100240 47
2009-11-13 07:44:30 51°15.425 2°54.097 4.2 265 12.7 100240 50
2009-11-13 07:44:34 51°15.436 2°54.088 2.7 264 12.7 100240 50
2009-11-13 07:44:40 51°15.453 2°54.074 3.4 263 12.7 100240 50
2009-11-13 07:44:45 51°15.467 2°54.063 3.3 268 12.7 100240 50
2009-11-13 07:44:50 51°15.48 2°54.051 5.3 267 12.7 100230 49
2009-11-13 07:44:55 51°15.495 2°54.04 2.3 264 12.7 100230 49
2009-11-13 07:45:00 51°15.508 2°54.028 4.3 260 12.7 100230 46
2009-11-13 07:45:04 51°15.519 2°54.019 2.7 264 12.7 100230 46
2009-11-13 07:45:10 51°15.536 2°54.005 5.5 270 12.7 100240 50
2009-11-13 07:45:14 51°15.547 2°53.996 5.1 266 12.7 100240 50
2009-11-13 07:45:20 51°15.564 2°53.983 6.1 266 12.7 100240 48
2009-11-13 07:45:25 51°15.578 2°53.971 5.4 41 12.7 100240 48
2009-11-13 07:45:30 51°15.591 2°53.96 4.8 267 12.7 100230 51
2009-11-13 07:45:34 51°15.602 2°53.951 5.4 327 12.7 100230 51
2009-11-13 07:45:40 51°15.619 2°53.937 3.6 270 12.7 100230 50
2009-11-13 07:45:45 51°15.632 2°53.925 4.1 265 12.7 100230 50
2009-11-13 07:45:50 51°15.646 2°53.914 2.8 263 12.7 100240 51
2009-11-13 07:45:55 51°15.66 2°53.902 2.6 263 12.7 100240 51
2009-11-13 07:46:00 51°15.674 2°53.891 4.3 261 12.7 100230 45
2009-11-13 07:46:05 51°15.687 2°53.879 3.5 266 12.7 100230 45
2009-11-13 07:46:10 51°15.701 2°53.867 2.2 259 12.7 100230 48
2009-11-13 07:46:14 51°15.712 2°53.858 2.6 265 12.7 100230 48
2009-11-13 07:46:20 51°15.729 2°53.844 3.2 266 12.7 100230 49
2009-11-13 07:46:25 51°15.743 2°53.833 1.5 265 12.7 100230 49
2009-11-13 07:46:30 51°15.756 2°53.821 2.4 263 12.7 100230 46
2009-11-13 07:46:35 51°15.77 2°53.81 2.3 268 12.7 100230 46
2009-11-13 07:46:40 51°15.784 2°53.798 2.5 267 12.7 100230 50
2009-11-13 07:46:45 51°15.798 2°53.786 4.6 43 12.7 100230 50
2009-11-13 07:46:50 51°15.812 2°53.775 4.1 23 12.7 100230 51
2009-11-13 07:46:54 51°15.823 2°53.765 4.4 35 12.7 100230 51
2009-11-13 07:47:00 51°15.84 2°53.752 2.9 264 12.7 100230 46
2009-11-13 07:47:05 51°15.853 2°53.74 2.5 264 12.7 100230 46
2009-11-13 07:47:10 51°15.867 2°53.728 1.9 263 12.7 100230 47
2009-11-13 07:47:14 51°15.878 2°53.719 2.5 265 12.7 100230 47
2009-11-13 07:47:20 51°15.895 2°53.705 3.3 268 12.7 100230 52
2009-11-13 07:47:25 51°15.909 2°53.694 4.2 258 12.7 100230 52
2009-11-13 07:47:30 51°15.923 2°53.683 3.6 262 12.7 100230 46
2009-11-13 07:47:34 51°15.934 2°53.674 4.5 268 12.7 100230 46
2009-11-13 07:47:40 51°15.95 2°53.66 4.8 266 12.7 100230 51
2009-11-13 07:47:45 51°15.964 2°53.649 3.9 263 12.7 100230 51
2009-11-13 07:47:50 51°15.978 2°53.637 2.6 264 12.7 100230 49
2009-11-13 07:47:54 51°15.989 2°53.628 3.3 267 12.7 100230 49
2009-11-13 07:48:00 51°16.006 2°53.614 2.8 262 12.7 100230 50
2009-11-13 07:48:05 51°16.02 2°53.603 4.3 269 12.7 100230 50
2009-11-13 07:48:10 51°16.033 2°53.591 4.4 264 12.7 100230 51
2009-11-13 07:48:14 51°16.044 2°53.582 4.3 268 12.7 100230 51
2009-11-13 07:48:20 51°16.061 2°53.568 3.8 266 12.7 100230 46
2009-11-13 07:48:25 51°16.075 2°53.557 3.1 265 12.7 100230 46
2009-11-13 07:48:30 51°16.089 2°53.545 4.1 270 12.7 100230 47
2009-11-13 07:48:34 51°16.1 2°53.536 3.3 263 12.7 100230 47
2009-11-13 07:48:40 51°16.116 2°53.523 1.2 267 12.7 100230 51
2009-11-13 07:48:45 51°16.13 2°53.511 3.6 269 12.7 100230 51
2009-11-13 07:48:50 51°16.144 2°53.5 7.3 270 12.7 100230 46
2009-11-13 07:48:54 51°16.155 2°53.491 6 39 12.7 100230 46
2009-11-13 07:49:00 51°16.172 2°53.478 6.6 25 12.7 100230 46
2009-11-13 07:49:05 51°16.186 2°53.466 4.7 41 12.7 100230 46
2009-11-13 07:49:10 51°16.199 2°53.455 3.5 269 12.7 100230 51
2009-11-13 07:49:14 51°16.21 2°53.446 3.3 263 12.7 100230 51
2009-11-13 07:49:20 51°16.227 2°53.432 3.6 266 12.7 100230 51
2009-11-13 07:49:25 51°16.241 2°53.421 2.4 261 12.7 100230 51
2009-11-13 07:49:30 51°16.254 2°53.41 2.8 261 12.7 100240 46
2009-11-13 07:49:34 51°16.266 2°53.401 3.5 264 12.7 100240 46
2009-11-13 07:49:40 51°16.282 2°53.388 3 264 12.7 100230 47
2009-11-13 07:49:44 51°16.293 2°53.379 4.4 269 12.7 100230 47
2009-11-13 07:49:50 51°16.31 2°53.366 5 269 12.7 100230 46
2009-11-13 07:49:54 51°16.321 2°53.357 4.3 268 12.7 100230 46
2009-11-13 07:50:00 51°16.337 2°53.343 3.6 265 12.7 100230 46
2009-11-13 07:50:05 51°16.351 2°53.332 3.2 267 12.7 100230 46
2009-11-13 07:50:10 51°16.364 2°53.321 4.9 269 12.7 100220 51
2009-11-13 07:50:14 51°16.375 2°53.312 4.5 266 12.7 100220 51
2009-11-13 07:50:20 51°16.392 2°53.298 4.8 270 12.7 100230 49
2009-11-13 07:50:25 51°16.405 2°53.287 3.3 265 12.7 100230 49
2009-11-13 07:50:30 51°16.419 2°53.276 3.6 269 12.7 100220 51
2009-11-13 07:50:34 51°16.43 2°53.267 3.7 261 12.7 100220 51
2009-11-13 07:50:40 51°16.447 2°53.253 3 264 12.7 100230 51
2009-11-13 07:50:45 51°16.46 2°53.242 2.4 265 12.7 100230 51
2009-11-13 07:50:50 51°16.474 2°53.231 2.5 266 12.7 100230 48
2009-11-13 07:50:54 51°16.485 2°53.221 2.9 263 12.7 100230 48
2009-11-13 07:51:00 51°16.502 2°53.208 4.7 259 12.7 100220 47
2009-11-13 07:51:04 51°16.512 2°53.199 5.2 269 12.7 100220 47
2009-11-13 07:51:10 51°16.529 2°53.185 5.6 266 12.7 100230 51
2009-11-13 07:51:14 51°16.54 2°53.176 2.9 262 12.7 100230 51
2009-11-13 07:51:20 51°16.556 2°53.162 2.7 264 12.7 100230 45
2009-11-13 07:51:25 51°16.57 2°53.151 4.5 266 12.7 100230 45
2009-11-13 07:51:30 51°16.583 2°53.139 5 267 12.7 100230 49
2009-11-13 07:51:34 51°16.594 2°53.13 3 265 12.7 100230 49
2009-11-13 07:51:40 51°16.611 2°53.116 2.7 264 12.7 100230 47
2009-11-13 07:51:45 51°16.624 2°53.104 3.9 265 12.7 100230 47
2009-11-13 07:51:50 51°16.638 2°53.093 4.2 261 12.7 100240 47
2009-11-13 07:51:54 51°16.648 2°53.084 4 263 12.7 100240 47
2009-11-13 07:52:00 51°16.665 2°53.07 3.4 263 12.7 100230 48
2009-11-13 07:52:05 51°16.678 2°53.058 3.1 263 12.7 100230 48
2009-11-13 07:52:10 51°16.692 2°53.047 3.3 264 12.7 100230 49
2009-11-13 07:52:14 51°16.703 2°53.038 5.3 38 12.7 100230 49
2009-11-13 07:52:20 51°16.719 2°53.024 4.8 26 12.7 100230 50
2009-11-13 07:52:25 51°16.733 2°53.013 2.8 268 12.7 100230 50
2009-11-13 07:52:30 51°16.746 2°53.002 6 28 12.7 100240 50
2009-11-13 07:52:34 51°16.757 2°52.992 3.9 255 12.7 100240 50
2009-11-13 07:52:40 51°16.773 2°52.979 5.3 261 12.7 100230 50
2009-11-13 07:52:45 51°16.786 2°52.967 4.6 264 12.7 100230 50
2009-11-13 07:52:50 51°16.8 2°52.956 4 267 12.7 100240 46
2009-11-13 07:52:54 51°16.811 2°52.947 5.2 267 12.7 100240 46
2009-11-13 07:53:00 51°16.826 2°52.932 5.1 268 12.7 100230 47
2009-11-13 07:53:05 51°16.84 2°52.921 2.9 263 12.7 100230 47
2009-11-13 07:53:10 51°16.853 2°52.909 3 266 12.7 100230 50
2009-11-13 07:53:14 51°16.864 2°52.9 3.7 266 12.7 100230 50
2009-11-13 07:53:20 51°16.88 2°52.886 3.7 263 12.7 100220 50
2009-11-13 07:53:24 51°16.891 2°52.877 4.3 269 12.7 100220 50
2009-11-13 07:53:30 51°16.907 2°52.863 5.1 269 12.7 100230 48
2009-11-13 07:53:34 51°16.918 2°52.854 4 267 12.7 100230 48
2009-11-13 07:53:40 51°16.934 2°52.84 5 269 12.7 100230 51
2009-11-13 07:53:45 51°16.947 2°52.829 5.2 269 12.7 100230 51
2009-11-13 07:53:50 51°16.961 2°52.818 4.3 26 12.7 100230 51
2009-11-13 07:53:54 51°16.971 2°52.809 4.6 269 12.7 100230 51
2009-11-13 07:54:00 51°16.988 2°52.795 3.2 261 12.7 100230 50
2009-11-13 07:54:05 51°17.001 2°52.783 2.7 260 12.7 100230 50
2009-11-13 07:54:10 51°17.015 2°52.772 3.2 260 12.7 100230 44
2009-11-13 07:54:14 51°17.025 2°52.762 3 263 12.7 100230 44
2009-11-13 07:54:20 51°17.041 2°52.747 3.1 265 12.7 100230 46
2009-11-13 07:54:25 51°17.055 2°52.735 2.5 264 12.7 100230 46
2009-11-13 07:54:30 51°17.068 2°52.724 4.6 264 12.7 100230 50
2009-11-13 07:54:34 51°17.079 2°52.715 4.6 270 12.7 100230 50
2009-11-13 07:54:40 51°17.095 2°52.701 5.9 30 12.7 100220 50
2009-11-13 07:54:45 51°17.11 2°52.691 5 267 12.7 100220 50
2009-11-13 07:54:50 51°17.123 2°52.68 3.9 268 12.7 100220 49
2009-11-13 07:54:55 51°17.138 2°52.671 4 270 12.7 100220 49
2009-11-13 07:55:00 51°17.152 2°52.66 5.3 26 12.7 100230 46
2009-11-13 07:55:05 51°17.166 2°52.651 4 268 12.7 100230 46
2009-11-13 07:55:10 51°17.18 2°52.642 3.8 265 12.7 100230 51
2009-11-13 07:55:15 51°17.195 2°52.633 3.4 265 12.7 100230 51
2009-11-13 07:55:20 51°17.21 2°52.624 2.3 264 12.7 100230 50
2009-11-13 07:55:25 51°17.224 2°52.615 4.1 37 12.7 100230 50
2009-11-13 07:55:30 51°17.239 2°52.607 3.3 267 12.7 100230 49
2009-11-13 07:55:35 51°17.253 2°52.598 5.3 33 12.7 100230 49
2009-11-13 07:55:40 51°17.268 2°52.59 6.5 25 12.7 100230 51
2009-11-13 07:55:45 51°17.283 2°52.581 5.9 33 12.7 100230 51
2009-11-13 07:55:50 51°17.298 2°52.573 5.1 19 12.7 100230 51
2009-11-13 07:55:55 51°17.312 2°52.565 6.5 37 12.7 100230 51
2009-11-13 07:56:00 51°17.327 2°52.556 5.1 24 12.7 100230 49
2009-11-13 07:56:05 51°17.342 2°52.548 2.8 268 12.7 100230 49
2009-11-13 07:56:10 51°17.357 2°52.539 2.4 266 12.7 100230 51
2009-11-13 07:56:15 51°17.371 2°52.531 2.8 266 12.7 100230 51
2009-11-13 07:56:20 51°17.386 2°52.522 3.9 270 12.7 100240 48
2009-11-13 07:56:25 51°17.402 2°52.514 3.9 270 12.7 100240 48
2009-11-13 07:56:30 51°17.416 2°52.506 3.7 23 12.7 100230 52
2009-11-13 07:56:35 51°17.431 2°52.498 5.4 36 12.7 100230 52
2009-11-13 07:56:40 51°17.446 2°52.49 4.1 28 12.7 100230 47
2009-11-13 07:56:45 51°17.461 2°52.482 5.1 35 12.7 100230 47
2009-11-13 07:56:50 51°17.477 2°52.474 3.9 20 12.7 100230 47
2009-11-13 07:56:55 51°17.492 2°52.467 2.7 32 12.7 100230 47
2009-11-13 07:57:00 51°17.507 2°52.46 3 269 12.7 100230 50
2009-11-13 07:57:05 51°17.523 2°52.455 3 32 12.7 100230 50
2009-11-13 07:57:10 51°17.538 2°52.451 3.7 27 12.7 100230 52
2009-11-13 07:57:15 51°17.554 2°52.447 2.7 37 12.7 100230 52
2009-11-13 07:57:20 51°17.57 2°52.443 2.8 25 12.7 100230 47
2009-11-13 07:57:25 51°17.585 2°52.44 2.5 32 12.7 100230 47
2009-11-13 07:57:30 51°17.601 2°52.438 2.3 22 12.7 100230 46
2009-11-13 07:57:35 51°17.617 2°52.436 2.4 37 12.7 100230 46
2009-11-13 07:57:40 51°17.634 2°52.434 1.3 27 12.7 100230 46
2009-11-13 07:57:45 51°17.65 2°52.433 2.7 38 12.7 100230 46
2009-11-13 07:57:50 51°17.666 2°52.431 2.7 20 12.7 100220 47
2009-11-13 07:57:55 51°17.682 2°52.43 3.3 32 12.7 100220 47
2009-11-13 07:58:00 51°17.698 2°52.429 2.6 20 12.7 100220 51
2009-11-13 07:58:05 51°17.714 2°52.428 0.9 31 12.7 100220 51
2009-11-13 07:58:10 51°17.73 2°52.428 1.4 26 12.7 100230 52
2009-11-13 07:58:15 51°17.746 2°52.427 2.7 36 12.7 100230 52
2009-11-13 07:58:20 51°17.762 2°52.428 3 24 12.7 100230 50
2009-11-13 07:58:25 51°17.779 2°52.428 3.5 34 12.7 100230 50
2009-11-13 07:58:30 51°17.795 2°52.43 3.6 21 12.7 100240 47
2009-11-13 07:58:35 51°17.811 2°52.43 1.2 39 12.7 100240 47
2009-11-13 07:58:40 51°17.827 2°52.431 2.8 21 12.7 100230 51
2009-11-13 07:58:45 51°17.844 2°52.432 0.8 32 12.7 100230 51
2009-11-13 07:58:50 51°17.86 2°52.436 1.3 22 12.7 100230 47
2009-11-13 07:58:55 51°17.876 2°52.439 1 40 12.7 100230 47
2009-11-13 07:59:00 51°17.892 2°52.443 0.4 22 12.8 100240 51
2009-11-13 07:59:05 51°17.908 2°52.446 0.6 32 12.8 100240 51
2009-11-13 07:59:10 51°17.924 2°52.448 1.9 25 12.8 100230 49
2009-11-13 07:59:14 51°17.937 2°52.452 0.3 32 12.8 100230 49
2009-11-13 07:59:20 51°17.957 2°52.455 1.6 22 12.8 100230 48
2009-11-13 07:59:25 51°17.973 2°52.458 0.1 36 12.8 100230 48
2009-11-13 07:59:30 51°17.989 2°52.462 0.1 18 12.9 100240 50
2009-11-13 07:59:35 51°18.006 2°52.465 1.4 30 12.9 100240 50
2009-11-13 07:59:40 51°18.022 2°52.47 0.5 21 12.9 100220 49
2009-11-13 07:59:45 51°18.039 2°52.474 1.9 33 12.9 100220 49
2009-11-13 07:59:50 51°18.054 2°52.476 1.1 27 12.9 100220 49
2009-11-13 07:59:54 51°18.067 2°52.48 0.9 35 12.9 100220 49
2009-11-13 08:00:00 51°18.087 2°52.484 0.3 23 13 100230 47
2009-11-13 08:00:05 51°18.103 2°52.488 0.7 39 13 100230 47
2009-11-13 08:00:10 51°18.12 2°52.491 0.6 21 13.1 100230 49
2009-11-13 08:00:15 51°18.136 2°52.496 0.4 37 13.1 100230 49
2009-11-13 08:00:20 51°18.153 2°52.499 0.2 25 13.2 100230 49
2009-11-13 08:00:25 51°18.169 2°52.501 0.6 36 13.2 100230 49
2009-11-13 08:00:30 51°18.185 2°52.507 2.4 21 13.3 100230 50
2009-11-13 08:00:35 51°18.201 2°52.508 0.8 32 13.3 100230 50
2009-11-13 08:00:40 51°18.217 2°52.512 0.3 22 13.3 100230 48
2009-11-13 08:00:45 51°18.233 2°52.515 2.1 33 13.3 100230 48
2009-11-13 08:00:50 51°18.249 2°52.518 2.6 22 13.3 100230 51
2009-11-13 08:00:55 51°18.266 2°52.522 0.6 34 13.3 100230 51
2009-11-13 08:01:00 51°18.282 2°52.525 0.3 27 13.3 100230 47
2009-11-13 08:01:05 51°18.298 2°52.528 1.2 35 13.3 100230 47
2009-11-13 08:01:10 51°18.315 2°52.531 1.5 30 13.4 100230 50
2009-11-13 08:01:15 51°18.331 2°52.534 2.1 31 13.4 100230 50
2009-11-13 08:01:20 51°18.347 2°52.537 0.5 27 13.4 100230 49
2009-11-13 08:01:25 51°18.364 2°52.54 1.7 37 13.4 100230 49
2009-11-13 08:01:30 51°18.38 2°52.543 0.4 28 13.4 100230 48
2009-11-13 08:01:35 51°18.396 2°52.547 0.2 39 13.4 100230 48
2009-11-13 08:01:40 51°18.412 2°52.55 0.1 21 13.4 100220 51
2009-11-13 08:01:45 51°18.429 2°52.553 1.1 31 13.4 100220 51
2009-11-13 08:01:50 51°18.445 2°52.557 0.3 26 13.5 100230 52
2009-11-13 08:01:55 51°18.461 2°52.56 1.7 36 13.5 100230 52
2009-11-13 08:02:00 51°18.477 2°52.563 2.1 24 13.4 100230 49
2009-11-13 08:02:05 51°18.494 2°52.567 1.3 37 13.4 100230 49
2009-11-13 08:02:10 51°18.51 2°52.571 0.6 20 13.4 100230 47
2009-11-13 08:02:15 51°18.526 2°52.572 1.6 33 13.4 100230 47
2009-11-13 08:02:20 51°18.543 2°52.577 0.8 22 13.5 100240 50
2009-11-13 08:02:25 51°18.559 2°52.578 2.8 39 13.5 100240 50
2009-11-13 08:02:30 51°18.575 2°52.584 1 21 13.5 100230 48
2009-11-13 08:02:35 51°18.591 2°52.585 2.2 32 13.5 100230 48
2009-11-13 08:02:40 51°18.607 2°52.589 1.5 21 13.5 100240 48
2009-11-13 08:02:45 51°18.624 2°52.591 1.7 38 13.5 100240 48
2009-11-13 08:02:50 51°18.64 2°52.594 2.2 26 13.5 100230 49
2009-11-13 08:02:55 51°18.656 2°52.597 2.2 38 13.5 100230 49
2009-11-13 08:03:00 51°18.672 2°52.599 2.7 22 13.5 100230 48
2009-11-13 08:03:05 51°18.689 2°52.603 2.5 39 13.5 100230 48
2009-11-13 08:03:10 51°18.705 2°52.605 2.8 21 13.4 100230 45
2009-11-13 08:03:15 51°18.721 2°52.61 2.5 33 13.4 100230 45
2009-11-13 08:03:20 51°18.737 2°52.61 4.6 28 13.4 100230 49
2009-11-13 08:03:25 51°18.753 2°52.614 3.1 31 13.4 100230 49
2009-11-13 08:03:30 51°18.769 2°52.617 1.6 27 13.4 100230 50
2009-11-13 08:03:35 51°18.786 2°52.62 2.6 34 13.4 100230 50
2009-11-13 08:03:40 51°18.802 2°52.622 3.2 29 13.3 100230 46
2009-11-13 08:03:45 51°18.818 2°52.626 0.2 33 13.3 100230 46
2009-11-13 08:03:50 51°18.834 2°52.629 0.1 22 13.3 100230 46
2009-11-13 08:03:55 51°18.851 2°52.631 1.6 36 13.3 100230 46
2009-11-13 08:04:00 51°18.867 2°52.635 0.6 24 13.3 100230 45
2009-11-13 08:04:05 51°18.883 2°52.636 0.8 33 13.3 100230 45
2009-11-13 08:04:10 51°18.9 2°52.64 0.2 22 13.3 100220 48
2009-11-13 08:04:15 51°18.915 2°52.643 0.5 32 13.3 100220 48
2009-11-13 08:04:20 51°18.932 2°52.646 0.3 21 13.3 100230 49
2009-11-13 08:04:25 51°18.948 2°52.65 0.8 41 13.3 100230 49
2009-11-13 08:04:30 51°18.964 2°52.652 0.7 26 13.3 100240 49
2009-11-13 08:04:35 51°18.981 2°52.655 0.2 32 13.3 100240 49
2009-11-13 08:04:40 51°18.997 2°52.657 1.4 28 13.3 100230 48
2009-11-13 08:04:45 51°19.013 2°52.66 0.2 30 13.3 100230 48
2009-11-13 08:04:50 51°19.03 2°52.662 3 22 13.3 100230 49
2009-11-13 08:04:55 51°19.046 2°52.665 1 34 13.3 100230 49
2009-11-13 08:05:00 51°19.062 2°52.668 2.4 28 13.3 100230 48
2009-11-13 08:05:05 51°19.079 2°52.671 0.3 32 13.3 100230 48
2009-11-13 08:05:10 51°19.095 2°52.672 2.2 22 13.3 100230 47
2009-11-13 08:05:15 51°19.111 2°52.676 1 39 13.3 100230 47
2009-11-13 08:05:20 51°19.128 2°52.679 1.6 22 13.2 100230 49
2009-11-13 08:05:25 51°19.144 2°52.681 0.5 37 13.2 100230 49
2009-11-13 08:05:30 51°19.16 2°52.684 0.4 20 13.2 100230 48
2009-11-13 08:05:35 51°19.177 2°52.687 0.2 37 13.2 100230 48
2009-11-13 08:05:40 51°19.193 2°52.689 3 20 13.2 100220 48
2009-11-13 08:05:45 51°19.209 2°52.692 0.7 36 13.2 100220 48
2009-11-13 08:05:50 51°19.226 2°52.694 1.4 19 13.2 100230 48
2009-11-13 08:05:55 51°19.242 2°52.697 1.1 30 13.2 100230 48
2009-11-13 08:06:00 51°19.258 2°52.7 0.3 26 13.2 100230 50
2009-11-13 08:06:05 51°19.275 2°52.702 0.7 30 13.2 100230 50
2009-11-13 08:06:10 51°19.291 2°52.706 0.2 21 13.1 100220 48
2009-11-13 08:06:15 51°19.307 2°52.708 0.1 40 13.1 100220 48
2009-11-13 08:06:20 51°19.324 2°52.712 2 21 13.2 100220 48
2009-11-13 08:06:25 51°19.34 2°52.713 2.2 32 13.2 100220 48
2009-11-13 08:06:30 51°19.356 2°52.716 1 19 13.1 100220 48
2009-11-13 08:06:35 51°19.373 2°52.718 0.2 38 13.1 100220 48
2009-11-13 08:06:40 51°19.389 2°52.72 0.3 20 13.1 100220 46
2009-11-13 08:06:45 51°19.406 2°52.722 0.5 37 13.1 100220 46
2009-11-13 08:06:50 51°19.422 2°52.725 1 19 13.2 100230 48
2009-11-13 08:06:55 51°19.438 2°52.727 1.1 31 13.2 100230 48
2009-11-13 08:07:00 51°19.455 2°52.73 1.2 21 13.2 100220 48
2009-11-13 08:07:05 51°19.471 2°52.733 0.7 36 13.2 100220 48
2009-11-13 08:07:10 51°19.488 2°52.735 2 25 13.2 100220 49
2009-11-13 08:07:15 51°19.504 2°52.738 0.2 33 13.2 100220 49
2009-11-13 08:07:20 51°19.521 2°52.741 1.3 27 13.2 100230 50
2009-11-13 08:07:25 51°19.537 2°52.744 1.6 37 13.2 100230 50
2009-11-13 08:07:30 51°19.553 2°52.748 0.9 19 13.2 100220 48
2009-11-13 08:07:35 51°19.569 2°52.75 3.9 39 13.2 100220 48
2009-11-13 08:07:40 51°19.586 2°52.755 2.6 21 13.2 100220 51
2009-11-13 08:07:45 51°19.602 2°52.757 1.2 33 13.2 100220 51
2009-11-13 08:07:50 51°19.619 2°52.76 1.1 22 13.2 100220 48
2009-11-13 08:07:55 51°19.635 2°52.763 1.3 30 13.2 100220 48
2009-11-13 08:08:00 51°19.651 2°52.767 1.2 26 13.2 100220 50
2009-11-13 08:08:05 51°19.668 2°52.77 2.1 37 13.2 100220 50
2009-11-13 08:08:10 51°19.684 2°52.773 1.8 24 13.2 100230 47
2009-11-13 08:08:15 51°19.701 2°52.775 1.4 40 13.2 100230 47
2009-11-13 08:08:20 51°19.717 2°52.779 3 21 13.2 100220 48
2009-11-13 08:08:25 51°19.734 2°52.782 1 35 13.2 100220 48
2009-11-13 08:08:30 51°19.75 2°52.785 1.9 24 13.2 100220 49
2009-11-13 08:08:35 51°19.767 2°52.788 0.5 33 13.2 100220 49
2009-11-13 08:08:40 51°19.783 2°52.79 0.3 22 13.2 100230 49
2009-11-13 08:08:45 51°19.799 2°52.793 0.4 34 13.2 100230 49
2009-11-13 08:08:50 51°19.815 2°52.796 0.2 28 13.2 100220 47
2009-11-13 08:08:55 51°19.832 2°52.799 0.2 32 13.2 100220 47
2009-11-13 08:09:00 51°19.848 2°52.802 0.1 22 13.2 100230 49
2009-11-13 08:09:05 51°19.865 2°52.804 0.6 39 13.2 100230 49
2009-11-13 08:09:10 51°19.881 2°52.808 0.3 21 13.2 100230 48
2009-11-13 08:09:15 51°19.898 2°52.81 0.9 34 13.2 100230 48
2009-11-13 08:09:20 51°19.914 2°52.813 0.5 23 13.2 100230 48
2009-11-13 08:09:25 51°19.931 2°52.815 1.4 38 13.2 100230 48
2009-11-13 08:09:30 51°19.947 2°52.819 0.8 20 13.2 100230 48
2009-11-13 08:09:35 51°19.964 2°52.822 0.6 34 13.2 100230 48
2009-11-13 08:09:40 51°19.981 2°52.824 2.2 22 13.2 100230 51
2009-11-13 08:09:45 51°19.997 2°52.828 0.8 38 13.2 100230 51
2009-11-13 08:09:50 51°20.014 2°52.83 2.5 20 13.2 100220 49
2009-11-13 08:09:55 51°20.03 2°52.833 2.3 35 13.2 100220 49
2009-11-13 08:10:00 51°20.047 2°52.837 1.2 29 13.1 100230 45
2009-11-13 08:10:05 51°20.063 2°52.838 0.4 33 13.1 100230 45
2009-11-13 08:10:10 51°20.079 2°52.842 0.2 25 13.2 100220 46
2009-11-13 08:10:15 51°20.096 2°52.843 1.9 34 13.2 100220 46
2009-11-13 08:10:20 51°20.113 2°52.847 3.8 28 13.2 100230 50
2009-11-13 08:10:25 51°20.129 2°52.849 1.6 33 13.2 100230 50
2009-11-13 08:10:30 51°20.145 2°52.852 3.3 28 13.2 100230 46
2009-11-13 08:10:35 51°20.162 2°52.856 3.4 37 13.2 100230 46
2009-11-13 08:10:40 51°20.178 2°52.857 4.3 27 13.2 100220 47
2009-11-13 08:10:45 51°20.195 2°52.861 2.2 36 13.2 100220 47
2009-11-13 08:10:50 51°20.211 2°52.865 2.6 27 13.2 100220 48
2009-11-13 08:10:55 51°20.228 2°52.867 0.6 32 13.2 100220 48
2009-11-13 08:11:00 51°20.244 2°52.871 3.3 19 13.2 100230 47
2009-11-13 08:11:05 51°20.26 2°52.872 1.8 31 13.2 100230 47
2009-11-13 08:11:10 51°20.277 2°52.877 0.5 26 13.3 100220 50
2009-11-13 08:11:15 51°20.293 2°52.878 1.5 33 13.3 100220 50
2009-11-13 08:11:20 51°20.309 2°52.882 1.3 20 13.2 100230 46
2009-11-13 08:11:25 51°20.325 2°52.885 3.1 39 13.2 100230 46
2009-11-13 08:11:30 51°20.342 2°52.888 2.2 26 13.3 100230 49
2009-11-13 08:11:35 51°20.358 2°52.89 2.3 32 13.3 100230 49
2009-11-13 08:11:40 51°20.375 2°52.894 0.8 27 13.3 100220 48
2009-11-13 08:11:45 51°20.391 2°52.896 3.4 37 13.3 100220 48
2009-11-13 08:11:50 51°20.408 2°52.9 2.2 18 13.3 100220 46
2009-11-13 08:11:55 51°20.424 2°52.902 1.5 37 13.3 100220 46
2009-11-13 08:12:00 51°20.44 2°52.907 0.6 25 13.3 100230 47
2009-11-13 08:12:05 51°20.457 2°52.911 1 32 13.3 100230 47
2009-11-13 08:12:10 51°20.473 2°52.914 1.5 27 13.4 100220 49
2009-11-13 08:12:15 51°20.489 2°52.921 0.1 30 13.4 100220 49
2009-11-13 08:12:20 51°20.505 2°52.926 0.1 21 13.3 100220 49
2009-11-13 08:12:25 51°20.521 2°52.93 3.4 37 13.3 100220 49
2009-11-13 08:12:30 51°20.537 2°52.938 3.1 25 13.3 100230 49
2009-11-13 08:12:35 51°20.553 2°52.941 0.3 39 13.3 100230 49
2009-11-13 08:12:40 51°20.569 2°52.948 2.1 21 13.4 100230 48
2009-11-13 08:12:45 51°20.585 2°52.953 1.6 31 13.4 100230 48
2009-11-13 08:12:50 51°20.602 2°52.959 0.7 21 13.4 100230 48
2009-11-13 08:12:55 51°20.618 2°52.964 2.5 40 13.4 100230 48
2009-11-13 08:13:00 51°20.634 2°52.971 1.6 29 13.4 100220 47
2009-11-13 08:13:05 51°20.65 2°52.975 0.7 37 13.4 100220 47
2009-11-13 08:13:10 51°20.666 2°52.982 0.9 25 13.4 100220 49
2009-11-13 08:13:15 51°20.682 2°52.988 1.6 38 13.4 100220 49
2009-11-13 08:13:20 51°20.698 2°52.993 1.2 21 13.5 100230 50
2009-11-13 08:13:25 51°20.714 2°53 2.4 32 13.5 100230 50
2009-11-13 08:13:30 51°20.73 2°53.005 2.4 22 13.6 100220 47
2009-11-13 08:13:35 51°20.746 2°53.01 0.6 40 13.6 100220 47
2009-11-13 08:13:40 51°20.762 2°53.017 0.6 26 13.6 100220 48
2009-11-13 08:13:45 51°20.777 2°53.025 0.9 34 13.6 100220 48
2009-11-13 08:13:50 51°20.793 2°53.029 0.3 28 13.7 100230 50
2009-11-13 08:13:55 51°20.809 2°53.037 0.9 37 13.7 100230 50
2009-11-13 08:14:00 51°20.825 2°53.042 2.7 19 13.7 100220 49
2009-11-13 08:14:05 51°20.841 2°53.047 3.6 36 13.7 100220 49
2009-11-13 08:14:10 51°20.856 2°53.054 4.2 19 13.7 100230 49
2009-11-13 08:14:15 51°20.873 2°53.059 0.2 33 13.7 100230 49
2009-11-13 08:14:20 51°20.889 2°53.065 0.1 22 13.7 100230 50
2009-11-13 08:14:25 51°20.904 2°53.071 0.2 38 13.7 100230 50
2009-11-13 08:14:30 51°20.921 2°53.076 1 20 13.7 100220 48
2009-11-13 08:14:35 51°20.937 2°53.082 2.9 39 13.7 100220 48
2009-11-13 08:14:40 51°20.952 2°53.089 0.5 21 13.8 100230 50
2009-11-13 08:14:45 51°20.968 2°53.092 0.1 33 13.8 100230 50
2009-11-13 08:14:50 51°20.984 2°53.1 0.1 22 13.8 100230 49
2009-11-13 08:14:55 51°21 2°53.103 0.1 38 13.8 100230 49
2009-11-13 08:15:00 51°21.016 2°53.111 0.1 26 13.8 100220 49
2009-11-13 08:15:05 51°21.031 2°53.117 0.9 32 13.8 100220 49
2009-11-13 08:15:10 51°21.048 2°53.123 1.3 21 13.9 100230 48
2009-11-13 08:15:15 51°21.063 2°53.13 0.5 33 13.9 100230 48
2009-11-13 08:15:20 51°21.08 2°53.134 0.2 21 13.9 100220 50
2009-11-13 08:15:25 51°21.095 2°53.142 0.2 21 13.9 100220 50
2009-11-13 08:15:30 51°21.111 2°53.147 0.2 21 13.9 100220 50
2009-11-13 08:15:35 51°21.127 2°53.153 0.2 21 13.9 100220 50
2009-11-13 08:15:41 51°21.146 2°53.161 0.2 21 13.9 100220 50
2009-11-13 08:15:46 51°21.162 2°53.166 0.2 21 13.9 100220 50
2009-11-13 08:15:51 51°21.178 2°53.173 -999 -999 -999 -999 -999
2009-11-13 08:15:56 51°21.194 2°53.179 -999 -999 -999 -999 -999
2009-11-13 08:16:01 51°21.21 2°53.184 -999 -999 -999 -999 -999
2009-11-13 08:16:06 51°21.226 2°53.19 -999 -999 -999 -999 -999
2009-11-13 08:16:11 51°21.242 2°53.197 -999 31 -999 -999 -999
2009-11-13 08:16:16 51°21.259 2°53.202 0.8 37 -999 -999 -999
2009-11-13 08:16:20 51°21.271 2°53.208 3.8 21 -999 -999 -999
2009-11-13 08:16:25 51°21.287 2°53.213 1.7 32 -999 -999 -999
2009-11-13 08:16:30 51°21.303 2°53.218 0.9 22 13.8 -999 47
2009-11-13 08:16:35 51°21.319 2°53.225 2 32 13.8 -999 47
2009-11-13 08:16:40 51°21.336 2°53.231 3.7 24 13.9 -999 52
2009-11-13 08:16:45 51°21.352 2°53.238 2.8 38 13.9 -999 52
2009-11-13 08:16:50 51°21.368 2°53.244 3.3 21 13.9 100220 49
2009-11-13 08:16:55 51°21.384 2°53.249 2.9 34 13.9 100220 49
2009-11-13 08:17:00 51°21.4 2°53.255 3.4 21 13.9 100210 49
2009-11-13 08:17:05 51°21.416 2°53.261 3.7 37 13.9 100210 49
2009-11-13 08:17:10 51°21.432 2°53.267 2.2 20 13.9 100220 50
2009-11-13 08:17:15 51°21.449 2°53.273 2.1 31 13.9 100220 50
2009-11-13 08:17:20 51°21.465 2°53.28 3.7 21 13.9 100210 50
2009-11-13 08:17:25 51°21.481 2°53.287 1.5 38 13.9 100210 50
2009-11-13 08:17:30 51°21.497 2°53.293 2.2 24 13.9 100220 47
2009-11-13 08:17:35 51°21.513 2°53.299 1.8 33 13.9 100220 47
2009-11-13 08:17:40 51°21.53 2°53.306 3.8 24 14 100220 51
2009-11-13 08:17:45 51°21.546 2°53.312 0.5 32 14 100220 51
2009-11-13 08:17:50 51°21.562 2°53.319 2.2 22 14 100220 50
2009-11-13 08:17:55 51°21.578 2°53.324 2.1 31 14 100220 50
2009-11-13 08:18:00 51°21.594 2°53.331 2.5 26 13.9 100210 50
2009-11-13 08:18:05 51°21.61 2°53.336 1.8 38 13.9 100210 50
2009-11-13 08:18:10 51°21.626 2°53.343 2 20 14 100220 49
2009-11-13 08:18:14 51°21.639 2°53.347 1.6 39 14 100220 49
2009-11-13 08:18:20 51°21.659 2°53.354 3.5 21 14 100220 47
2009-11-13 08:18:25 51°21.675 2°53.361 2.5 37 14 100220 47
2009-11-13 08:18:30 51°21.691 2°53.366 1.5 25 13.9 100210 50
2009-11-13 08:18:35 51°21.707 2°53.373 0.8 37 13.9 100210 50
2009-11-13 08:18:40 51°21.723 2°53.378 0.3 20 13.9 100220 46
2009-11-13 08:18:45 51°21.74 2°53.385 1.2 34 13.9 100220 46
2009-11-13 08:18:50 51°21.756 2°53.389 1.3 23 13.9 100210 48
2009-11-13 08:18:55 51°21.772 2°53.395 3.4 37 13.9 100210 48
2009-11-13 08:19:00 51°21.788 2°53.402 2.5 26 14 100210 51
2009-11-13 08:19:05 51°21.805 2°53.406 1.3 38 14 100210 51
2009-11-13 08:19:10 51°21.821 2°53.413 0.5 20 13.9 100220 48
2009-11-13 08:19:15 51°21.837 2°53.419 0.4 33 13.9 100220 48
2009-11-13 08:19:20 51°21.853 2°53.425 1.4 22 14 100210 47
2009-11-13 08:19:25 51°21.87 2°53.43 1.1 38 14 100210 47
2009-11-13 08:19:30 51°21.886 2°53.437 4.3 28 14 100210 45
2009-11-13 08:19:35 51°21.902 2°53.442 2.7 33 14 100210 45
2009-11-13 08:19:40 51°21.919 2°53.448 2.8 20 14 100210 46
2009-11-13 08:19:45 51°21.935 2°53.454 1.9 39 14 100210 46
2009-11-13 08:19:50 51°21.951 2°53.46 1.6 26 14 100210 47
2009-11-13 08:19:55 51°21.968 2°53.464 3.5 38 14 100210 47
2009-11-13 08:20:00 51°21.984 2°53.471 1.8 25 14 100210 50
2009-11-13 08:20:05 51°22 2°53.476 1 33 14 100210 50
2009-11-13 08:20:10 51°22.017 2°53.481 0.3 22 14.1 100210 46
2009-11-13 08:20:14 51°22.029 2°53.487 0.4 32 14.1 100210 46
2009-11-13 08:20:20 51°22.049 2°53.492 2.4 27 14 100220 48
2009-11-13 08:20:25 51°22.065 2°53.498 3.6 38 14 100220 48
2009-11-13 08:20:30 51°22.081 2°53.503 2 20 14.1 100220 48
2009-11-13 08:20:35 51°22.098 2°53.509 0.9 36 14.1 100220 48
2009-11-13 08:20:40 51°22.114 2°53.514 1.3 25 14 100210 49
2009-11-13 08:20:45 51°22.13 2°53.521 2.3 39 14 100210 49
2009-11-13 08:20:50 51°22.147 2°53.525 1.7 24 14 100220 47
2009-11-13 08:20:55 51°22.163 2°53.531 2.7 35 14 100220 47
2009-11-13 08:21:00 51°22.179 2°53.539 4.7 19 14.1 100210 47
2009-11-13 08:21:05 51°22.196 2°53.544 1.6 36 14.1 100210 47
2009-11-13 08:21:10 51°22.212 2°53.549 2.4 20 14.1 100220 50
2009-11-13 08:21:15 51°22.228 2°53.556 2.8 38 14.1 100220 50
2009-11-13 08:21:20 51°22.244 2°53.561 0.5 25 14.1 100210 50
2009-11-13 08:21:25 51°22.261 2°53.567 3.7 34 14.1 100210 50
2009-11-13 08:21:30 51°22.277 2°53.574 3.4 22 14.2 100220 51
2009-11-13 08:21:35 51°22.293 2°53.579 5.1 34 14.2 100220 51
2009-11-13 08:21:40 51°22.31 2°53.585 2.8 27 14.3 100210 46
2009-11-13 08:21:45 51°22.326 2°53.592 5.4 35 14.3 100210 46
2009-11-13 08:21:50 51°22.342 2°53.598 3.4 21 14.3 100220 49
2009-11-13 08:21:55 51°22.358 2°53.604 3.3 37 14.3 100220 49
2009-11-13 08:22:00 51°22.374 2°53.61 1.9 25 14.3 100220 46
2009-11-13 08:22:05 51°22.391 2°53.616 3.1 40 14.3 100220 46
2009-11-13 08:22:10 51°22.407 2°53.622 2 27 14.3 100220 45
2009-11-13 08:22:15 51°22.423 2°53.629 4.3 33 14.3 100220 45
2009-11-13 08:22:20 51°22.44 2°53.633 3.2 28 14.4 100210 46
2009-11-13 08:22:25 51°22.456 2°53.641 3.3 34 14.4 100210 46
2009-11-13 08:22:30 51°22.472 2°53.644 1.3 23 14.4 100210 50
2009-11-13 08:22:35 51°22.489 2°53.652 3.3 38 14.4 100210 50
2009-11-13 08:22:40 51°22.505 2°53.657 2.7 25 14.3 100210 51
2009-11-13 08:22:45 51°22.521 2°53.663 3.2 39 14.3 100210 51
2009-11-13 08:22:50 51°22.537 2°53.669 3.7 22 14.3 100210 45
2009-11-13 08:22:55 51°22.554 2°53.676 3.6 31 14.3 100210 45
2009-11-13 08:23:00 51°22.57 2°53.681 1.7 21 14.3 100210 46
2009-11-13 08:23:05 51°22.586 2°53.688 3.2 39 14.3 100210 46
2009-11-13 08:23:10 51°22.602 2°53.695 4.4 27 14.3 100210 48
2009-11-13 08:23:14 51°22.615 2°53.699 1.9 30 14.3 100210 48
2009-11-13 08:23:20 51°22.635 2°53.707 3.9 24 14.3 100210 48
2009-11-13 08:23:25 51°22.651 2°53.713 2.4 37 14.3 100210 48
2009-11-13 08:23:30 51°22.667 2°53.717 1.7 21 14.3 100210 46
2009-11-13 08:23:35 51°22.683 2°53.725 1.6 36 14.3 100210 46
2009-11-13 08:23:40 51°22.7 2°53.729 1.3 19 14.2 100210 50
2009-11-13 08:23:45 51°22.716 2°53.735 1.5 36 14.2 100210 50
2009-11-13 08:23:50 51°22.732 2°53.741 1.1 19 14.2 100210 48
2009-11-13 08:23:55 51°22.749 2°53.745 0.1 31 14.2 100210 48
2009-11-13 08:24:00 51°22.765 2°53.752 2.3 27 14.2 100210 48
2009-11-13 08:24:05 51°22.782 2°53.757 0.2 36 14.2 100210 48
2009-11-13 08:24:10 51°22.798 2°53.763 1.4 19 14.2 100210 48
2009-11-13 08:24:15 51°22.815 2°53.77 1.8 38 14.2 100210 48
2009-11-13 08:24:20 51°22.83 2°53.775 0.6 21 14.1 100210 48
2009-11-13 08:24:25 51°22.847 2°53.781 0.9 39 14.1 100210 48
2009-11-13 08:24:30 51°22.863 2°53.787 1.9 27 14.1 100210 47
2009-11-13 08:24:35 51°22.88 2°53.792 2.6 39 14.1 100210 47
2009-11-13 08:24:40 51°22.896 2°53.798 0.6 26 14.1 100210 48
2009-11-13 08:24:45 51°22.912 2°53.803 2.3 31 14.1 100210 48
2009-11-13 08:24:50 51°22.929 2°53.809 1.3 22 14.2 100200 49
2009-11-13 08:24:55 51°22.945 2°53.814 0.6 37 14.2 100200 49
2009-11-13 08:25:00 51°22.962 2°53.82 0.9 25 14.2 100200 50
2009-11-13 08:25:05 51°22.978 2°53.826 0.9 33 14.2 100200 50
2009-11-13 08:25:10 51°22.995 2°53.832 0.3 22 14.2 100200 48
2009-11-13 08:25:15 51°23.012 2°53.836 1.9 31 14.2 100200 48
2009-11-13 08:25:20 51°23.028 2°53.844 2.6 21 14.3 100210 48
2009-11-13 08:25:25 51°23.045 2°53.848 4.9 38 14.3 100210 48
2009-11-13 08:25:30 51°23.061 2°53.854 4.5 25 14.3 100200 50
2009-11-13 08:25:34 51°23.074 2°53.859 2.2 40 14.3 100200 50
2009-11-13 08:25:40 51°23.094 2°53.865 1.4 22 14.3 100210 51
2009-11-13 08:25:45 51°23.11 2°53.873 0.2 36 14.3 100210 51
2009-11-13 08:25:50 51°23.127 2°53.877 0.5 24 14.3 100210 46
2009-11-13 08:25:55 51°23.143 2°53.884 0.1 35 14.3 100210 46
2009-11-13 08:26:00 51°23.16 2°53.888 0.1 28 14.4 100210 50
2009-11-13 08:26:05 51°23.176 2°53.896 1.6 39 14.4 100210 50
2009-11-13 08:26:10 51°23.193 2°53.9 0.6 21 14.4 100200 47
2009-11-13 08:26:15 51°23.209 2°53.907 1.1 34 14.4 100200 47
2009-11-13 08:26:20 51°23.226 2°53.912 0.4 28 14.3 100200 48
2009-11-13 08:26:25 51°23.242 2°53.917 1.7 34 14.3 100200 48
2009-11-13 08:26:30 51°23.258 2°53.924 3.4 26 14.3 100200 49
2009-11-13 08:26:35 51°23.274 2°53.931 1.2 40 14.3 100200 49
2009-11-13 08:26:40 51°23.291 2°53.935 0.9 26 14.3 100210 50
2009-11-13 08:26:45 51°23.307 2°53.941 1.9 30 14.3 100210 50
2009-11-13 08:26:50 51°23.323 2°53.948 3.3 20 14.3 100200 46
2009-11-13 08:26:55 51°23.34 2°53.951 3.8 37 14.3 100200 46
2009-11-13 08:27:00 51°23.356 2°53.957 3.6 27 14.3 100200 48
2009-11-13 08:27:05 51°23.373 2°53.963 3.4 37 14.3 100200 48
2009-11-13 08:27:10 51°23.389 2°53.966 1.3 73 14.3 100200 50
2009-11-13 08:27:15 51°23.405 2°53.973 0.4 33 14.3 100200 50
2009-11-13 08:27:20 51°23.422 2°53.978 1.1 28 14.4 100200 50
2009-11-13 08:27:25 51°23.439 2°53.984 0.3 31 14.4 100200 50
2009-11-13 08:27:30 51°23.455 2°53.989 1.3 26 14.5 100190 48
2009-11-13 08:27:34 51°23.468 2°53.994 2.7 31 14.5 100190 48
2009-11-13 08:27:40 51°23.488 2°54 1.7 22 14.5 100200 51
2009-11-13 08:27:45 51°23.505 2°54.006 1.7 34 14.5 100200 51
2009-11-13 08:27:50 51°23.522 2°54.01 2.4 22 14.6 100200 47
2009-11-13 08:27:55 51°23.538 2°54.016 4.6 32 14.6 100200 47
2009-11-13 08:28:00 51°23.555 2°54.021 3.3 24 14.6 100200 51
2009-11-13 08:28:05 51°23.572 2°54.026 0.9 32 14.6 100200 51
2009-11-13 08:28:10 51°23.588 2°54.032 1.5 27 14.7 100200 47
2009-11-13 08:28:15 51°23.605 2°54.037 2.7 33 14.7 100200 47
2009-11-13 08:28:20 51°23.621 2°54.043 4.8 28 14.7 100200 48
2009-11-13 08:28:25 51°23.638 2°54.049 3.6 32 14.7 100200 48
2009-11-13 08:28:30 51°23.655 2°54.055 1.6 22 14.7 100190 49
2009-11-13 08:28:35 51°23.671 2°54.061 1.5 31 14.7 100190 49
2009-11-13 08:28:40 51°23.688 2°54.066 2.1 21 14.7 100200 48
2009-11-13 08:28:45 51°23.704 2°54.073 2 33 14.7 100200 48
2009-11-13 08:28:50 51°23.721 2°54.076 0.6 28 14.7 100200 46
2009-11-13 08:28:55 51°23.738 2°54.085 3.2 31 14.7 100200 46
2009-11-13 08:29:00 51°23.755 2°54.088 2.1 21 14.7 100200 45
2009-11-13 08:29:05 51°23.771 2°54.095 3.7 32 14.7 100200 45
2009-11-13 08:29:10 51°23.787 2°54.103 4.5 80 14.6 100190 46
2009-11-13 08:29:15 51°23.804 2°54.107 2.5 36 14.6 100190 46
2009-11-13 08:29:20 51°23.821 2°54.113 3 21 14.6 100190 46
2009-11-13 08:29:25 51°23.837 2°54.12 2.4 33 14.6 100190 46
2009-11-13 08:29:30 51°23.854 2°54.124 2.3 22 14.6 100190 49
2009-11-13 08:29:35 51°23.87 2°54.13 3.9 35 14.6 100190 49
2009-11-13 08:29:40 51°23.887 2°54.136 4.9 26 14.6 100190 47
2009-11-13 08:29:45 51°23.904 2°54.14 3.6 33 14.6 100190 47
2009-11-13 08:29:50 51°23.92 2°54.146 2.3 22 14.6 100190 47
2009-11-13 08:29:55 51°23.937 2°54.152 2.2 38 14.6 100190 47
2009-11-13 08:30:00 51°23.954 2°54.156 4.1 23 14.5 100190 46
2009-11-13 08:30:05 51°23.971 2°54.165 2.2 31 14.5 100190 46
2009-11-13 08:30:10 51°23.988 2°54.167 3.3 27 14.5 100180 46
2009-11-13 08:30:15 51°24.004 2°54.175 3.3 35 14.5 100180 46
2009-11-13 08:30:20 51°24.02 2°54.181 3.6 23 14.4 100180 47
2009-11-13 08:30:25 51°24.037 2°54.187 4.1 39 14.4 100180 47
2009-11-13 08:30:30 51°24.054 2°54.192 4 20 14.4 100190 49
2009-11-13 08:30:34 51°24.067 2°54.197 3.4 37 14.4 100190 49
2009-11-13 08:30:40 51°24.087 2°54.205 2.4 19 14.4 100180 50
2009-11-13 08:30:45 51°24.104 2°54.209 2.7 32 14.4 100180 50
2009-11-13 08:30:50 51°24.12 2°54.217 1.6 27 14.4 100190 49
2009-11-13 08:30:55 51°24.137 2°54.221 1.3 38 14.4 100190 49
2009-11-13 08:31:00 51°24.153 2°54.229 2.5 20 14.4 100180 49
2009-11-13 08:31:05 51°24.17 2°54.234 4.9 36 14.4 100180 49
2009-11-13 08:31:10 51°24.187 2°54.241 3.7 28 14.4 100180 45
2009-11-13 08:31:15 51°24.203 2°54.244 4.5 33 14.4 100180 45
2009-11-13 08:31:20 51°24.22 2°54.253 3.3 23 14.4 100170 46
2009-11-13 08:31:25 51°24.236 2°54.255 6.2 35 14.4 100170 46
2009-11-13 08:31:30 51°24.252 2°54.264 5.4 25 14.3 100180 50
2009-11-13 08:31:35 51°24.269 2°54.268 5.5 33 14.3 100180 50
2009-11-13 08:31:40 51°24.286 2°54.275 5.8 22 14.3 100180 48
2009-11-13 08:31:45 51°24.302 2°54.281 1.6 36 14.3 100180 48
2009-11-13 08:31:50 51°24.318 2°54.285 5.1 23 14.3 100180 48
2009-11-13 08:31:55 51°24.334 2°54.291 4.5 33 14.3 100180 48
2009-11-13 08:32:00 51°24.351 2°54.297 2.9 29 14.2 100190 46
2009-11-13 08:32:05 51°24.367 2°54.303 3.5 31 14.2 100190 46
2009-11-13 08:32:10 51°24.384 2°54.309 4.2 76 14.2 100180 48
2009-11-13 08:32:15 51°24.4 2°54.313 4.1 38 14.2 100180 48
2009-11-13 08:32:20 51°24.416 2°54.321 4 20 14.2 100180 47
2009-11-13 08:32:25 51°24.433 2°54.325 2.7 40 14.2 100180 47
2009-11-13 08:32:30 51°24.449 2°54.332 1.7 21 14.2 100190 46
2009-11-13 08:32:35 51°24.465 2°54.338 3 36 14.2 100190 46
2009-11-13 08:32:40 51°24.481 2°54.341 2.6 19 14.2 100170 50
2009-11-13 08:32:45 51°24.497 2°54.349 3.6 38 14.2 100170 50
2009-11-13 08:32:50 51°24.514 2°54.353 2.6 22 14.2 100180 45
2009-11-13 08:32:55 51°24.53 2°54.357 2.3 33 14.2 100180 45
2009-11-13 08:33:00 51°24.546 2°54.365 4.7 27 14.3 100180 49
2009-11-13 08:33:05 51°24.562 2°54.368 3.1 35 14.3 100180 49
2009-11-13 08:33:10 51°24.577 2°54.376 3.9 23 14.3 100180 47
2009-11-13 08:33:15 51°24.594 2°54.381 3.7 39 14.3 100180 47
2009-11-13 08:33:20 51°24.61 2°54.385 2.9 25 14.3 100180 50
2009-11-13 08:33:25 51°24.626 2°54.392 4.5 33 14.3 100180 50
2009-11-13 08:33:30 51°24.642 2°54.397 3.4 29 14.3 100180 50
2009-11-13 08:33:35 51°24.658 2°54.402 5 33 14.3 100180 50
2009-11-13 08:33:40 51°24.673 2°54.409 4 22 14.4 100180 48
2009-11-13 08:33:45 51°24.69 2°54.413 2.9 33 14.4 100180 48
2009-11-13 08:33:50 51°24.706 2°54.42 3.2 23 14.3 100180 47
2009-11-13 08:33:55 51°24.722 2°54.423 3.9 33 14.3 100180 47
2009-11-13 08:34:00 51°24.738 2°54.432 3.6 29 14.3 100190 45
2009-11-13 08:34:05 51°24.754 2°54.433 4 33 14.3 100190 45
2009-11-13 08:34:10 51°24.77 2°54.442 3.1 77 14.3 100180 46
2009-11-13 08:34:15 51°24.786 2°54.444 5.5 40 14.3 100180 46
2009-11-13 08:34:20 51°24.802 2°54.452 3.8 27 14.3 100180 47
2009-11-13 08:34:25 51°24.818 2°54.455 2.5 37 14.3 100180 47
2009-11-13 08:34:30 51°24.834 2°54.46 1 20 14.3 100180 47
2009-11-13 08:34:35 51°24.85 2°54.466 2.3 34 14.3 100180 47
2009-11-13 08:34:40 51°24.866 2°54.471 2.8 21 14.4 100180 50
2009-11-13 08:34:45 51°24.882 2°54.476 2.8 32 14.4 100180 50
2009-11-13 08:34:50 51°24.898 2°54.483 4.2 25 14.4 100180 47
2009-11-13 08:34:55 51°24.914 2°54.488 5 37 14.4 100180 47
2009-11-13 08:35:00 51°24.93 2°54.494 4.7 27 14.4 100180 48
2009-11-13 08:35:05 51°24.946 2°54.501 1.6 36 14.4 100180 48
2009-11-13 08:35:10 51°24.963 2°54.505 0.5 26 14.5 100180 49
2009-11-13 08:35:15 51°24.979 2°54.512 1.5 39 14.5 100180 49
2009-11-13 08:35:20 51°24.995 2°54.518 1.7 26 14.5 100180 46
2009-11-13 08:35:25 51°25.011 2°54.524 3.5 36 14.5 100180 46
2009-11-13 08:35:30 51°25.027 2°54.53 2.8 26 14.5 100180 50
2009-11-13 08:35:35 51°25.043 2°54.534 2.1 38 14.5 100180 50
2009-11-13 08:35:40 51°25.059 2°54.542 3 20 14.5 100190 50
2009-11-13 08:35:45 51°25.075 2°54.546 0.7 38 14.5 100190 50
2009-11-13 08:35:50 51°25.091 2°54.552 3.3 22 14.5 100190 46
2009-11-13 08:35:55 51°25.107 2°54.557 1.5 32 14.5 100190 46
2009-11-13 08:36:00 51°25.122 2°54.562 1.1 27 14.5 100190 50
2009-11-13 08:36:05 51°25.138 2°54.567 2.7 34 14.5 100190 50
2009-11-13 08:36:10 51°25.154 2°54.57 2.4 76 14.4 100180 46
2009-11-13 08:36:15 51°25.17 2°54.579 1.3 39 14.4 100180 46
2009-11-13 08:36:20 51°25.186 2°54.58 2.7 26 14.5 100190 49
2009-11-13 08:36:25 51°25.202 2°54.587 1.2 34 14.5 100190 49
2009-11-13 08:36:30 51°25.218 2°54.591 0.6 28 14.4 100190 46
2009-11-13 08:36:35 51°25.233 2°54.596 3.4 37 14.4 100190 46
2009-11-13 08:36:40 51°25.249 2°54.603 3.8 19 14.5 100190 50
2009-11-13 08:36:45 51°25.265 2°54.606 2.9 32 14.5 100190 50
2009-11-13 08:36:50 51°25.281 2°54.614 3.7 22 14.5 100190 48
2009-11-13 08:36:55 51°25.297 2°54.617 1 31 14.5 100190 48
2009-11-13 08:37:00 51°25.313 2°54.624 1.9 21 14.5 100190 51
2009-11-13 08:37:05 51°25.329 2°54.629 1.9 38 14.5 100190 51
2009-11-13 08:37:10 51°25.345 2°54.635 3.3 24 14.4 100190 50
2009-11-13 08:37:15 51°25.362 2°54.641 0.7 38 14.4 100190 50
2009-11-13 08:37:20 51°25.378 2°54.646 0.8 26 14.4 100190 47
2009-11-13 08:37:25 51°25.395 2°54.654 1.9 37 14.4 100190 47
2009-11-13 08:37:30 51°25.411 2°54.658 1.1 20 14.4 100180 50
2009-11-13 08:37:35 51°25.428 2°54.664 0.5 33 14.4 100180 50
2009-11-13 08:37:40 51°25.445 2°54.67 1.9 23 14.5 100190 49
2009-11-13 08:37:45 51°25.461 2°54.676 3 39 14.5 100190 49
2009-11-13 08:37:50 51°25.478 2°54.681 1.6 25 14.4 100190 48
2009-11-13 08:37:55 51°25.494 2°54.687 1.4 41 14.4 100190 48
2009-11-13 08:38:00 51°25.511 2°54.692 0.8 27 14.4 100190 48
2009-11-13 08:38:05 51°25.527 2°54.697 3.8 34 14.4 100190 48
2009-11-13 08:38:10 51°25.544 2°54.702 4.4 76 14.5 100190 50
2009-11-13 08:38:15 51°25.561 2°54.706 2 36 14.5 100190 50
2009-11-13 08:38:20 51°25.577 2°54.712 2.4 19 14.6 100190 49
2009-11-13 08:38:25 51°25.594 2°54.714 2.6 38 14.6 100190 49
2009-11-13 08:38:30 51°25.61 2°54.718 1.3 20 14.6 100180 46
2009-11-13 08:38:35 51°25.627 2°54.723 1.3 39 14.6 100180 46
2009-11-13 08:38:40 51°25.643 2°54.725 2.1 26 14.5 100190 49
2009-11-13 08:38:45 51°25.659 2°54.73 1.9 32 14.5 100190 49
2009-11-13 08:38:50 51°25.676 2°54.732 1.2 27 14.5 100190 48
2009-11-13 08:38:55 51°25.692 2°54.736 2.1 36 14.5 100190 48
2009-11-13 08:39:00 51°25.709 2°54.739 1.7 27 14.5 100190 48
2009-11-13 08:39:05 51°25.726 2°54.744 1.2 38 14.5 100190 48
2009-11-13 08:39:10 51°25.742 2°54.747 0.4 26 14.5 100190 48
2009-11-13 08:39:15 51°25.758 2°54.751 1.4 37 14.5 100190 48
2009-11-13 08:39:20 51°25.775 2°54.754 0.3 27 14.6 100180 49
2009-11-13 08:39:25 51°25.791 2°54.757 0.7 33 14.6 100180 49
2009-11-13 08:39:30 51°25.807 2°54.762 0.2 22 14.6 100180 49
2009-11-13 08:39:35 51°25.824 2°54.764 0.9 32 14.6 100180 49
2009-11-13 08:39:40 51°25.841 2°54.769 1.5 25 14.6 100190 48
2009-11-13 08:39:45 51°25.857 2°54.771 3.9 34 14.6 100190 48
2009-11-13 08:39:50 51°25.874 2°54.775 1.7 21 14.6 100180 48
2009-11-13 08:39:55 51°25.89 2°54.778 2 37 14.6 100180 48
2009-11-13 08:40:00 51°25.906 2°54.784 1.5 24 14.6 100180 50
2009-11-13 08:40:05 51°25.923 2°54.786 0.3 39 14.6 100180 50
2009-11-13 08:40:10 51°25.939 2°54.789 1.3 26 14.6 100170 48
2009-11-13 08:40:15 51°25.955 2°54.794 0.9 38 14.6 100170 48
2009-11-13 08:40:20 51°25.972 2°54.798 1.8 26 14.6 100180 48
2009-11-13 08:40:25 51°25.988 2°54.801 2.1 31 14.6 100180 48
2009-11-13 08:40:30 51°26.004 2°54.805 1.8 21 14.7 100190 48
2009-11-13 08:40:35 51°26.021 2°54.81 0.7 40 14.7 100190 48
2009-11-13 08:40:40 51°26.037 2°54.812 1 27 14.7 100180 49
2009-11-13 08:40:45 51°26.054 2°54.819 0.9 39 14.7 100180 49
2009-11-13 08:40:50 51°26.07 2°54.821 3.6 27 14.7 100170 45
2009-11-13 08:40:55 51°26.087 2°54.825 0.2 32 14.7 100170 45
2009-11-13 08:41:00 51°26.104 2°54.829 1.5 22 14.7 100190 48
2009-11-13 08:41:05 51°26.12 2°54.834 0.4 35 14.7 100190 48
2009-11-13 08:41:10 51°26.137 2°54.837 0.4 82 14.7 100190 46
2009-11-13 08:41:15 51°26.153 2°54.842 2 37 14.7 100190 46
2009-11-13 08:41:20 51°26.17 2°54.846 0.6 19 14.7 100170 47
2009-11-13 08:41:25 51°26.187 2°54.848 1.7 32 14.7 100170 47
2009-11-13 08:41:30 51°26.203 2°54.854 2.4 22 14.7 100180 48
2009-11-13 08:41:35 51°26.22 2°54.858 0.7 37 14.7 100180 48
2009-11-13 08:41:40 51°26.237 2°54.861 1.8 25 14.6 100180 47
2009-11-13 08:41:45 51°26.253 2°54.867 0.2 34 14.6 100180 47
2009-11-13 08:41:50 51°26.27 2°54.87 2.1 22 14.6 100180 47
2009-11-13 08:41:55 51°26.287 2°54.874 1.2 33 14.6 100180 47
2009-11-13 08:42:00 51°26.303 2°54.878 2.6 22 14.5 100180 48
2009-11-13 08:42:05 51°26.32 2°54.882 2.4 31 14.5 100180 48
2009-11-13 08:42:10 51°26.337 2°54.885 2.4 27 14.5 100170 48
2009-11-13 08:42:15 51°26.353 2°54.891 2.3 30 14.5 100170 48
2009-11-13 08:42:20 51°26.37 2°54.893 2.3 21 14.5 100180 49
2009-11-13 08:42:25 51°26.386 2°54.899 2.7 37 14.5 100180 49
2009-11-13 08:42:30 51°26.403 2°54.902 1.6 20 14.5 100180 48
2009-11-13 08:42:35 51°26.42 2°54.906 1.7 32 14.5 100180 48
2009-11-13 08:42:40 51°26.437 2°54.912 2.4 21 14.5 100190 47
2009-11-13 08:42:45 51°26.454 2°54.914 3.9 41 14.5 100190 47
2009-11-13 08:42:50 51°26.471 2°54.919 3.3 27 14.5 100190 49
2009-11-13 08:42:55 51°26.487 2°54.923 2 38 14.5 100190 49
2009-11-13 08:43:00 51°26.505 2°54.927 2.6 27 14.5 100180 49
2009-11-13 08:43:05 51°26.521 2°54.93 1.4 34 14.5 100180 49
2009-11-13 08:43:10 51°26.538 2°54.935 0.3 77 14.4 100190 48
2009-11-13 08:43:15 51°26.555 2°54.939 0.9 40 14.4 100190 48
2009-11-13 08:43:20 51°26.571 2°54.941 1.7 26 14.4 100180 48
2009-11-13 08:43:25 51°26.588 2°54.947 0.7 33 14.4 100180 48
2009-11-13 08:43:30 51°26.605 2°54.951 3.3 27 14.4 100180 47
2009-11-13 08:43:35 51°26.621 2°54.953 3.9 30 14.4 100180 47
2009-11-13 08:43:40 51°26.638 2°54.958 3.2 26 14.4 100180 48
2009-11-13 08:43:45 51°26.655 2°54.961 1.4 39 14.4 100180 48
2009-11-13 08:43:50 51°26.671 2°54.965 1.5 26 14.4 100180 50
2009-11-13 08:43:55 51°26.688 2°54.969 2 36 14.4 100180 50
2009-11-13 08:44:00 51°26.705 2°54.971 1.5 25 14.4 100180 50
2009-11-13 08:44:05 51°26.722 2°54.976 2 32 14.4 100180 50
2009-11-13 08:44:10 51°26.739 2°54.979 1.2 22 14.4 100180 51
2009-11-13 08:44:15 51°26.756 2°54.985 0.7 31 14.4 100180 51
2009-11-13 08:44:20 51°26.773 2°54.986 0.4 26 14.4 100170 49
2009-11-13 08:44:25 51°26.79 2°54.992 0.8 34 14.4 100170 49
2009-11-13 08:44:30 51°26.807 2°54.995 0.7 28 14.4 100170 49
2009-11-13 08:44:35 51°26.823 2°55.001 3.2 34 14.4 100170 49
2009-11-13 08:44:40 51°26.84 2°55.003 1.8 26 14.4 100180 48
2009-11-13 08:44:45 51°26.857 2°55.008 2.1 31 14.4 100180 48
2009-11-13 08:44:50 51°26.874 2°55.013 1.1 27 14.4 100180 48
2009-11-13 08:44:55 51°26.891 2°55.017 1 38 14.4 100180 48
2009-11-13 08:45:00 51°26.908 2°55.022 0.4 21 14.5 100170 49
2009-11-13 08:45:05 51°26.925 2°55.025 1.9 30 14.5 100170 49
2009-11-13 08:45:10 51°26.942 2°55.031 1.4 78 14.4 100170 48
2009-11-13 08:45:15 51°26.959 2°55.034 2.5 38 14.4 100170 48
2009-11-13 08:45:20 51°26.976 2°55.04 0.8 25 14.4 100170 47
2009-11-13 08:45:25 51°26.993 2°55.043 0.8 38 14.4 100170 47
2009-11-13 08:45:30 51°27.01 2°55.047 0.8 20 14.5 100170 49
2009-11-13 08:45:35 51°27.027 2°55.052 0.5 33 14.5 100170 49
2009-11-13 08:45:40 51°27.043 2°55.056 0.4 22 14.5 100170 47
2009-11-13 08:45:45 51°27.06 2°55.058 0.5 34 14.5 100170 47
2009-11-13 08:45:50 51°27.077 2°55.064 0.2 23 14.5 100170 47
2009-11-13 08:45:55 51°27.094 2°55.066 0.2 32 14.5 100170 47
2009-11-13 08:46:00 51°27.111 2°55.071 0.6 21 14.5 100180 47
2009-11-13 08:46:05 51°27.128 2°55.076 2.6 37 14.5 100180 47
2009-11-13 08:46:10 51°27.145 2°55.079 2.1 20 14.5 100180 47
2009-11-13 08:46:15 51°27.162 2°55.083 3.7 35 14.5 100180 47
2009-11-13 08:46:20 51°27.179 2°55.087 2.9 21 14.4 100170 47
2009-11-13 08:46:25 51°27.197 2°55.09 2.9 37 14.4 100170 47
2009-11-13 08:46:30 51°27.213 2°55.095 3.6 25 14.5 100180 48
2009-11-13 08:46:35 51°27.23 2°55.1 0.6 36 14.5 100180 48
2009-11-13 08:46:40 51°27.247 2°55.102 0.9 27 14.5 100190 47
2009-11-13 08:46:45 51°27.264 2°55.109 1 38 14.5 100190 47
2009-11-13 08:46:50 51°27.281 2°55.11 1.2 20 14.6 100180 49
2009-11-13 08:46:55 51°27.298 2°55.117 2.4 39 14.6 100180 49
2009-11-13 08:47:00 51°27.315 2°55.119 4.8 27 14.6 100180 49
2009-11-13 08:47:05 51°27.331 2°55.125 3.8 40 14.6 100180 49
2009-11-13 08:47:10 51°27.348 2°55.127 1.6 27 14.6 100180 50
2009-11-13 08:47:15 51°27.365 2°55.133 1.4 35 14.6 100180 50
2009-11-13 08:47:20 51°27.381 2°55.137 2.5 23 14.6 100180 46
2009-11-13 08:47:25 51°27.398 2°55.141 1.3 40 14.6 100180 46
2009-11-13 08:47:30 51°27.415 2°55.144 1 20 14.6 100170 48
2009-11-13 08:47:35 51°27.432 2°55.149 4.1 39 14.6 100170 48
2009-11-13 08:47:40 51°27.449 2°55.152 2.4 21 14.6 100170 48
2009-11-13 08:47:45 51°27.466 2°55.157 2.3 41 14.6 100170 48
2009-11-13 08:47:50 51°27.483 2°55.158 3.2 27 14.6 100170 46
2009-11-13 08:47:55 51°27.499 2°55.164 5.1 39 14.6 100170 46
2009-11-13 08:48:00 51°27.516 2°55.168 3.3 20 14.6 100170 45
2009-11-13 08:48:05 51°27.533 2°55.171 3.7 30 14.6 100170 45
2009-11-13 08:48:10 51°27.55 2°55.176 2.5 21 14.6 100180 46
2009-11-13 08:48:15 51°27.566 2°55.18 2.8 30 14.6 100180 46
2009-11-13 08:48:20 51°27.583 2°55.184 3.6 25 14.5 100160 46
2009-11-13 08:48:25 51°27.599 2°55.186 2.4 31 14.5 100160 46
2009-11-13 08:48:30 51°27.616 2°55.191 1.4 19 14.5 100170 48
2009-11-13 08:48:35 51°27.633 2°55.193 1 35 14.5 100170 48
2009-11-13 08:48:40 51°27.65 2°55.197 0.4 27 14.5 100180 49
2009-11-13 08:48:45 51°27.666 2°55.2 2.2 33 14.5 100180 49
2009-11-13 08:48:50 51°27.683 2°55.205 1.9 26 14.5 100170 45
2009-11-13 08:48:55 51°27.699 2°55.206 1.6 33 14.5 100170 45
2009-11-13 08:49:00 51°27.716 2°55.211 1.5 26 14.5 100170 49
2009-11-13 08:49:05 51°27.732 2°55.212 1.8 35 14.5 100170 49
2009-11-13 08:49:10 51°27.749 2°55.217 2.8 27 14.5 100160 47
2009-11-13 08:49:15 51°27.765 2°55.221 2.3 32 14.5 100160 47
2009-11-13 08:49:20 51°27.782 2°55.225 2.8 27 14.5 100170 49
2009-11-13 08:49:25 51°27.799 2°55.229 2.3 36 14.5 100170 49
2009-11-13 08:49:30 51°27.815 2°55.233 4.6 23 14.5 100160 48
2009-11-13 08:49:35 51°27.832 2°55.237 3.8 38 14.5 100160 48
2009-11-13 08:49:40 51°27.849 2°55.24 2.3 20 14.5 100160 50
2009-11-13 08:49:45 51°27.865 2°55.244 6.5 38 14.5 100160 50
2009-11-13 08:49:50 51°27.882 2°55.248 2.9 22 14.6 100170 50
2009-11-13 08:49:55 51°27.898 2°55.252 1.9 31 14.6 100170 50
2009-11-13 08:50:00 51°27.915 2°55.256 1.9 26 14.7 100180 51
2009-11-13 08:50:05 51°27.932 2°55.261 0.5 31 14.7 100180 51
2009-11-13 08:50:10 51°27.948 2°55.264 1.8 21 14.7 100170 46
2009-11-13 08:50:15 51°27.965 2°55.269 0.4 37 14.7 100170 46